Weather History for Monroe, MI

Change the Weather History Date:

Wednesday, February 13, 2013

  Actual Average Record
Temperature  
Mean Temperature 32 °F -  
Max Temperature 37 °F 32 °F 67 °F (1938)
Min Temperature 28 °F 16 °F -1 °F (1944)
Degree Days  
Heating Degree Days 32    
Moisture  
Dew Point 25 °F    
Average Humidity 79    
Maximum Humidity 93    
Minimum Humidity 65    
Precipitation  
Precipitation 0.00 in - - ()
Sea Level Pressure  
Sea Level Pressure 29.81 in    
Wind  
Wind Speed 5 mph (SW)    
Max Wind Speed 10 mph    
Max Gust Speed -    
Visibility 9 miles    
Events      
Averages and records for this station are not official NWS values.
T = Trace of Precipitation, MM = Missing Value Source: NWS Daily Summary

Daily Weather History Graph

Daily Weather History Graph

Search for Another Location

Airport:

Trip Planner

Search our weather history database for the weather conditions in past years. The results will help you decide how hot, cold, wet, or windy it might be!

Date:

Astronomy

Feb. 13, 2013 Rise Set
Actual Time 7:31 AM EST 6:04 PM EST
Civil Twilight 7:03 AM EST 6:33 PM EST
Nautical Twilight 6:30 AM EST 7:06 PM EST
Astronomical Twilight 5:58 AM EST 7:38 PM EST
Moon 8:56 AM EST (2/13) 10:11 PM EST (2/13)
Length of Visible Light 11h 30m
Length of Day
10h 32m
Waxing Crescent, 13% of the Moon is Illuminated
Feb 13
Waxing Crescent
Feb 17
First Quarter
Feb 25
Full
Mar 4
Last Quarter
Mar 11
New

Hourly Weather History & Observations

Time (EST) Temp. Windchill Dew Point Humidity Pressure Visibility Wind Dir Wind Speed Gust Speed Precip Events Conditions
12:11 AM 30.2 °F 21.9 °F 24.8 °F 80% 29.91 in 10.0 mi WNW 9.2 mph - N/A   Overcast
12:31 AM 30.2 °F 21.3 °F 24.8 °F 80% 29.91 in 10.0 mi NW 10.4 mph - N/A   Overcast
12:51 AM 30.2 °F 22.6 °F 24.8 °F 80% 29.91 in 10.0 mi NW 8.1 mph - N/A   Overcast
1:11 AM 30.2 °F 21.9 °F 24.8 °F 80% 29.91 in 10.0 mi NW 9.2 mph - N/A   Overcast
1:31 AM 30.2 °F 21.9 °F 23.0 °F 75% 29.90 in 10.0 mi WNW 9.2 mph - N/A   Overcast
1:51 AM 28.4 °F 22.2 °F 23.0 °F 80% 29.90 in 10.0 mi NW 5.8 mph - N/A   Overcast
2:11 AM 28.4 °F 20.4 °F 23.0 °F 80% 29.89 in 10.0 mi WNW 8.1 mph - N/A   Overcast
2:31 AM 28.4 °F 23.3 °F 23.0 °F 80% 29.89 in 10.0 mi WNW 4.6 mph - N/A   Overcast
3:12 AM 28.4 °F 23.3 °F 23.0 °F 80% 29.89 in 10.0 mi WNW 4.6 mph - N/A   Overcast
3:32 AM 28.4 °F 23.3 °F 23.0 °F 80% 29.88 in 10.0 mi WNW 4.6 mph - N/A   Overcast
3:52 AM 28.4 °F 21.2 °F 23.0 °F 80% 29.88 in 10.0 mi NW 6.9 mph - N/A   Overcast
4:12 AM 28.4 °F 22.2 °F 23.0 °F 80% 29.87 in 10.0 mi WNW 5.8 mph - N/A   Overcast
4:32 AM 28.4 °F 24.6 °F 23.0 °F 80% 29.87 in 10.0 mi WSW 3.5 mph - N/A   Overcast
4:52 AM 28.4 °F 24.6 °F 23.0 °F 80% 29.86 in 10.0 mi WNW 3.5 mph - N/A   Overcast
5:12 AM 28.4 °F 22.2 °F 23.0 °F 80% 29.86 in 10.0 mi NNW 5.8 mph - N/A   Overcast
5:32 AM 28.4 °F 23.3 °F 23.0 °F 80% 29.87 in 10.0 mi NW 4.6 mph - N/A   Overcast
5:52 AM 28.4 °F - 23.0 °F 80% 29.86 in 10.0 mi Calm Calm - N/A   Overcast
6:12 AM 28.4 °F 23.3 °F 23.0 °F 80% 29.85 in 10.0 mi WNW 4.6 mph - N/A   Overcast
6:33 AM 28.4 °F 24.6 °F 23.0 °F 80% 29.85 in 10.0 mi West 3.5 mph - N/A   Overcast
6:53 AM 28.4 °F 23.3 °F 23.0 °F 80% 29.85 in 10.0 mi WNW 4.6 mph - N/A   Overcast
7:13 AM 28.4 °F - 23.0 °F 80% 29.84 in 10.0 mi Calm Calm - N/A   Overcast
7:33 AM 28.4 °F - 23.0 °F 80% 29.84 in 10.0 mi Calm Calm - N/A   Overcast
7:53 AM 28.4 °F - 23.0 °F 80% 29.84 in 10.0 mi Calm Calm - N/A   Overcast
8:13 AM 28.4 °F - 23.0 °F 80% 29.83 in 10.0 mi Calm Calm - N/A   Overcast
8:33 AM 28.4 °F - 21.2 °F 74% 29.83 in 10.0 mi Calm Calm - N/A   Overcast
8:53 AM 28.4 °F - 21.2 °F 74% 29.82 in 10.0 mi Calm Calm - N/A   Overcast
9:13 AM 28.4 °F - 21.2 °F 74% 29.82 in 10.0 mi Calm Calm - N/A   Overcast
9:33 AM 28.4 °F 24.6 °F 23.0 °F 80% 29.81 in 10.0 mi NE 3.5 mph - N/A   Overcast
9:54 AM 28.4 °F - 21.2 °F 74% 29.81 in 10.0 mi Calm Calm - N/A   Overcast
10:14 AM 28.4 °F - 21.2 °F 74% 29.81 in 10.0 mi Calm Calm - N/A   Overcast
10:34 AM 28.4 °F - 23.0 °F 80% 29.83 in 10.0 mi Calm Calm - N/A   Mostly Cloudy
10:54 AM 30.2 °F 24.3 °F 23.0 °F 75% 29.83 in 10.0 mi South 5.8 mph - N/A   Overcast
11:14 AM 30.2 °F 26.7 °F 24.8 °F 80% 29.81 in 10.0 mi SSE 3.5 mph - N/A   Overcast
11:34 AM 32.0 °F 27.5 °F 24.8 °F 75% 29.81 in 10.0 mi South 4.6 mph - N/A   Mostly Cloudy
11:54 AM 32.0 °F 28.7 °F 24.8 °F 75% 29.80 in 10.0 mi South 3.5 mph - N/A   Scattered Clouds
12:14 PM 33.8 °F 29.6 °F 24.8 °F 70% 29.80 in 10.0 mi West 4.6 mph - N/A   Clear
12:35 PM 33.8 °F 29.6 °F 24.8 °F 70% 29.79 in 10.0 mi West 4.6 mph - N/A   Scattered Clouds
12:55 PM 33.8 °F 26.4 °F 24.8 °F 70% 29.78 in 10.0 mi West 9.2 mph - N/A   Scattered Clouds
1:15 PM 33.8 °F 27.7 °F 24.8 °F 70% 29.78 in 10.0 mi WNW 6.9 mph - N/A   Clear
1:35 PM 33.8 °F - 24.8 °F 70% 29.77 in 10.0 mi Calm Calm - N/A   Clear
1:55 PM 35.6 °F - 26.6 °F 70% 29.76 in 10.0 mi Calm Calm - N/A   Clear
2:15 PM 37.4 °F - 26.6 °F 65% 29.75 in 10.0 mi Calm Calm - N/A   Clear
2:35 PM 37.4 °F 34.9 °F 26.6 °F 65% 29.74 in 10.0 mi SW 3.5 mph - N/A   Clear
2:55 PM 37.4 °F 34.9 °F 26.6 °F 65% 29.74 in 10.0 mi South 3.5 mph - N/A   Clear
3:15 PM 37.4 °F 33.8 °F 28.4 °F 70% 29.73 in 10.0 mi South 4.6 mph - N/A   Clear
3:35 PM 37.4 °F 32.8 °F 28.4 °F 70% 29.73 in 10.0 mi South 5.8 mph - N/A   Clear
3:56 PM 37.4 °F 33.8 °F 28.4 °F 70% 29.73 in 10.0 mi South 4.6 mph - N/A   Clear
4:11 PM 37.4 °F 33.8 °F 26.6 °F 65% 29.73 in 10.0 mi South 4.6 mph - N/A   Clear
4:31 PM 37.4 °F 34.9 °F 28.4 °F 70% 29.73 in 10.0 mi South 3.5 mph - N/A   Clear
4:51 PM 35.6 °F 32.8 °F 26.6 °F 70% 29.73 in 10.0 mi South 3.5 mph - N/A   Clear
5:11 PM 35.6 °F 32.8 °F 28.4 °F 75% 29.73 in 10.0 mi South 3.5 mph - N/A   Clear
5:31 PM 35.6 °F 32.8 °F 28.4 °F 75% 29.74 in 10.0 mi South 3.5 mph - N/A   Clear
5:51 PM 33.8 °F 30.8 °F 28.4 °F 81% 29.75 in 10.0 mi SSE 3.5 mph - N/A   Clear
6:11 PM 30.2 °F 26.7 °F 28.4 °F 93% 29.75 in 10.0 mi SE 3.5 mph - N/A   Clear
6:31 PM 30.2 °F - 28.4 °F 93% 29.75 in 10.0 mi Calm Calm - N/A   Clear
6:51 PM 30.2 °F - 28.4 °F 93% 29.75 in 7.0 mi Calm Calm - N/A   Clear
7:12 PM 30.2 °F - 28.4 °F 93% 29.76 in 7.0 mi Calm Calm - N/A   Clear
7:32 PM 30.2 °F - 28.4 °F 93% 29.76 in 7.0 mi Calm Calm - N/A   Clear
7:52 PM 30.2 °F - 28.4 °F 93% 29.76 in 5.0 mi Calm Calm - N/A   Clear
8:12 PM 30.2 °F - 28.4 °F 93% 29.77 in 5.0 mi Calm Calm - N/A   Clear
8:32 PM 28.4 °F 24.6 °F 26.6 °F 93% 29.77 in 7.0 mi South 3.5 mph - N/A   Mostly Cloudy
8:52 PM 30.2 °F 25.4 °F 28.4 °F 93% 29.78 in 7.0 mi South 4.6 mph - N/A   Overcast
9:12 PM 30.2 °F 24.3 °F 26.6 °F 86% 29.78 in 7.0 mi South 5.8 mph - N/A   Mostly Cloudy
9:32 PM 30.2 °F 24.3 °F 26.6 °F 86% 29.78 in 7.0 mi South 5.8 mph - N/A   Scattered Clouds
9:52 PM 30.2 °F 24.3 °F 26.6 °F 86% 29.78 in 7.0 mi South 5.8 mph - N/A   Clear
10:13 PM 30.2 °F 23.4 °F 26.6 °F 86% 29.78 in 7.0 mi South 6.9 mph - N/A   Clear
10:33 PM 30.2 °F 24.3 °F 26.6 °F 86% 29.78 in 7.0 mi South 5.8 mph - N/A   Clear
10:53 PM 30.2 °F 25.4 °F 26.6 °F 86% 29.78 in 7.0 mi South 4.6 mph - N/A   Scattered Clouds
11:13 PM 30.2 °F 25.4 °F 26.6 °F 86% 29.78 in 7.0 mi South 4.6 mph - N/A   Scattered Clouds
11:33 PM 28.4 °F 23.3 °F 26.6 °F 93% 29.78 in 7.0 mi South 4.6 mph - N/A   Scattered Clouds
11:53 PM 30.2 °F 25.4 °F 26.6 °F 86% 29.78 in 7.0 mi South 4.6 mph - N/A   Scattered Clouds